Location: Quaker Farms
(41.4276°N, 73.1557°W)
Time: 10:21:57
(UTC+00:00)

Explorer 11/Cluster Stage 4 - All Passes

Search period start: 15 June 2021 00:00
Search period end: 25 June 2021 00:00
Orbit: 467 x 1257 km, 28.8° (Epoch: 14 June)

Date Brightness Start Highest point End Pass type
(mag) Time Alt. Az. Time Alt. Az. Time Alt. Az.
15 Jun - 09:01:47 10° S 09:04:20 12° SSE 09:06:47 10° SE daylight
15 Jun - 10:47:16 10° SW 10:52:27 21° S 10:57:00 10° ESE daylight
15 Jun - 12:35:31 10° SW 12:40:29 23° S 12:44:42 10° SE daylight
15 Jun - 14:25:13 10° SW 14:28:08 14° SSW 14:30:44 10° SSE daylight
16 Jun - 08:49:16 10° S 08:53:03 14° SSE 08:56:37 10° SE daylight
16 Jun - 10:35:34 10° SW 10:41:13 24° S 10:46:10 10° ESE daylight
16 Jun - 12:24:03 10° WSW 12:29:18 24° S 12:33:46 10° SE daylight
16 Jun - 14:14:01 10° SW 14:16:57 14° SSW 14:19:36 10° S daylight
17 Jun - 08:37:08 10° SSW 08:41:45 17° SSE 08:46:05 10° ESE visible
17 Jun - 10:23:56 10° SW 10:29:58 26° S 10:35:16 10° ESE daylight
17 Jun - 12:12:36 10° WSW 12:18:06 25° S 12:22:47 10° SE daylight
17 Jun - 14:02:50 10° SW 14:05:45 14° SSW 14:08:24 10° S daylight
18 Jun - 08:25:11 10° SSW 08:30:25 19° SSE 08:35:21 10° ESE visible
18 Jun - 10:12:20 10° SW 10:18:42 28° S 10:24:18 10° ESE daylight
18 Jun - 12:01:10 10° WSW 12:06:52 26° S 12:11:46 10° SE daylight
18 Jun - 13:51:41 10° SW 13:54:32 13° SSW 13:57:08 10° S daylight
19 Jun - 08:13:21 10° SSW 08:19:04 21° SSE 08:24:29 10° ESE visible
19 Jun - 10:00:47 10° SW 10:07:24 29° S 10:13:18 10° ESE daylight
19 Jun - 11:49:45 10° WSW 11:55:37 26° SSW 12:00:42 10° SE daylight
19 Jun - 13:40:36 10° SW 13:43:17 13° SSW 13:45:46 10° S daylight
20 Jun - 06:19:10 10° SSE 06:19:38 10° SSE 06:20:07 10° SSE visible
20 Jun - 08:01:38 10° SSW 08:07:43 23° SSE 08:13:32 10° ESE visible
20 Jun - 09:49:17 10° SW 09:56:06 31° S 10:02:14 10° ESE daylight
20 Jun - 11:38:21 10° WSW 11:44:20 26° SSW 11:49:35 10° SE daylight
20 Jun - 13:29:36 10° SW 13:32:00 12° SSW 13:34:15 10° S daylight
21 Jun - 06:05:35 10° S 06:08:14 12° SSE 06:10:54 10° SE visible
21 Jun - 07:50:01 10° SW 07:56:20 25° SSE 08:02:29 10° ESE visible
21 Jun - 09:37:49 10° WSW 09:44:46 32° S 09:51:07 10° ESE daylight
21 Jun - 11:26:58 10° WSW 11:33:02 25° SSW 11:38:24 10° SE daylight
21 Jun - 13:18:47 10° SW 13:20:42 11° SSW 13:22:33 10° SSW daylight
22 Jun - 05:53:18 10° S 05:56:50 13° SSE 06:00:27 10° SE visible
22 Jun - 07:38:27 10° SW 07:44:58 27° SSE 07:51:23 10° ESE visible
22 Jun - 09:26:22 10° WSW 09:33:25 32° S 09:39:58 10° ESE daylight
22 Jun - 11:15:38 10° WSW 11:21:43 25° SSW 11:27:10 10° SE daylight
22 Jun - 13:08:20 10° SW 13:09:23 10° SSW 13:10:24 10° SSW daylight
23 Jun - 05:41:20 10° S 05:45:26 15° SSE 05:49:41 10° ESE visible
23 Jun - 07:26:58 10° SW 07:33:35 28° SSE 07:40:12 10° ESE visible
23 Jun - 09:14:58 10° WSW 09:22:04 32° S 09:28:45 10° ESE daylight
23 Jun - 11:04:19 10° WSW 11:10:22 24° SSW 11:15:53 10° SSE daylight
24 Jun - 05:29:33 10° S 05:34:02 17° SSE 05:38:44 10° ESE visible
24 Jun - 07:15:32 10° SW 07:22:12 29° SSE 07:29:00 10° ESE visible
24 Jun - 09:03:37 10° WSW 09:10:42 32° S 09:17:30 10° SE daylight
24 Jun - 10:53:02 10° WSW 10:59:00 23° SSW 11:04:31 10° SSE daylight
